Location: Unspecified
(35.6961°N, 0.0000°E)
Time: 04:39:18
(UTC+00:00)

S-56A Canister/Altair - Pass Details

Date: 03 June 2019
Orbit: 633 x 2499 km, 38.9° (Epoch: 17 June)

Event Time Altitude Azimuth Distance (km) Brightness Sun altitude
Rises 00:26:19 0° 278° (W) 3,003 - -31.7°
Reaches altitude 10° 00:28:26 10° 281° (WNW) 2,177 - -31.6°
Maximum altitude 00:33:20 64° 3° (N) 938 - -31.5°
Exits shadow 00:33:39 63° 22° (NNE) 960 8.1 -31.4°
Drops below altitude 10° 00:40:13 10° 85° (E) 3,025 10.7 -31.2°
Sets 00:43:38 0° 88° (E) 4,289 11.5 -31.1°
